Wind_Speed
6 6 5 5 5 5 5 3 4 5 5 5 4 4 5 6 6 6 6 6 7 7 7 8 9 10 10 9 9 9 10 10 10 9 9 9 8 8 7 7 6 5 5 5
8 6 6 5 5 4 3 2 2 3 3 4 3 3 4 5 5 5 5 6 6 6 6 7 9 9 9 9 9 9 9 9 10 9 9 8 8 8 8 8 6 5 6 5
8 7 7 5 4 3 3 1 1 1 3 2 2 3 3 4 5 5 5 5 5 5 5 6 7 8 9 8 8 8 8 8 9 9 9 9 9 8 8 8 7 7 6 6
10 9 8 6 4 4 3 2 1 1 2 3 2 3 2 4 5 4 5 5 5 5 5 6 6 7 7 8 8 8 7 8 9 9 9 9 9 9 9 9 8 8 7 7
10 9 9 7 6 5 4 3 1 1 2 2 3 3 3 3 5 5 5 5 5 5 6 5 6 6 7 8 7 8 8 7 8 9 10 10 10 10 10 10 9 8 7 7
12 10 9 8 7 6 6 5 4 3 3 3 3 4 3 4 4 5 5 5 5 6 5 5 6 6 6 7 7 7 8 8 8 9 10 10 10 10 10 10 10 9 8 8
12 11 10 9 9 8 8 7 6 5 4 4 3 4 4 4 5 6 6 5 5 5 5 6 6 6 6 7 8 8 9 9 9 9 10 10 10 10 11 11 10 10 10 9
13 12 12 10 10 10 10 9 8 7 7 6 5 5 4 5 6 6 6 5 5 5 6 6 7 7 7 7 8 9 10 9 9 10 11 11 11 11 11 11 11 11 10 10
14 13 13 13 12 12 11 11 10 10 10 10 8 6 5 6 7 6 6 5 6 6 7 7 8 8 8 8 9 9 10 11 11 11 12 12 12 13 12 12 12 12 12 11
16 15 15 14 14 13 13 12 12 12 12 12 10 9 8 7 7 6 5 6 7 7 7 9 10 10 10 10 11 10 11 11 12 13 12 12 12 13 13 13 13 13 12 12
17 17 16 17 17 15 14 14 14 14 14 14 13 11 10 9 8 8 8 8 9 9 10 10 11 11 11 12 13 12 12 12 13 14 14 13 14 14 14 15 15 14 14 14
18 18 18 18 18 17 17 16 15 16 16 16 15 13 12 11 11 11 10 10 10 11 12 12 13 14 14 15 15 14 14 14 15 15 15 15 16 16 16 16 16 16 16 15
19 19 19 19 19 18 18 18 17 17 17 17 17 15 14 14 14 13 13 13 14 14 15 16 17 17 16 16 17 16 16 16 17 17 17 17 17 18 18 18 18 18 18 17
21 21 21 20 19 19 19 19 19 19 18 18 18 17 17 17 16 16 16 15 15 15 16 17 18 18 17 18 18 18 18 18 18 19 20 19 19 20 20 20 20 20 20 19
23 22 22 21 20 20 19 20 20 20 20 19 18 18 18 18 17 17 17 17 17 17 18 19 19 19 19 20 20 21 20 20 20 21 22 22 22 22 22 22 22 21 21 21
25 24 23 22 22 22 21 20 20 21 21 20 19 19 19 18 18 18 18 19 20 20 20 21 21 21 22 22 22 22 22 22 23 23 23 23 23 23 23 23 23 22 22 21
25 25 24 24 23 23 23 21 21 22 22 21 21 20 21 21 21 21 21 21 22 22 23 23 23 23 24 24 24 25 25 25 25 25 25 25 24 24 25 24 24 24 24 23
25 25 25 25 25 27 24 23 23 23 22 23 23 23 24 23 23 22 22 23 23 24 25 25 26 26 25 26 26 27 27 27 27 27 27 26 26 26 26 26 26 26 25 25
27 26 26 27 28 28 26 25 25 25 24 24 25 25 26 25 25 25 25 25 26 26 26 27 28 28 28 28 27 28 28 28 28 28 28 28 28 27 27 27 27 27 27 27
28 28 28 28 28 28 26 25 25 26 26 26 27 28 28 28 27 26 27 28 28 28 27 27 28 28 29 29 29 29 30 30 30 29 29 29 29 28 28 28 28 28 28 28
30 30 30 29 29 29 27 27 27 27 27 27 28 28 28 29 29 28 29 28 29 29 29 29 30 30 30 30 30 30 30 30 30 29 29 29 29 29 29 29 29 29 29 29
31 31 31 30 30 30 28 28 28 28 27 27 27 28 29 29 30 30 30 29 29 30 30 30 30 30 31 31 30 30 31 30 31 30 30 30 30 30 30 30 30 30 29 29
32 31 31 30 30 29 29 29 29 28 28 28 28 28 29 29 29 30 30 30 31 31 30 30 30 31 31 32 32 32 32 31 31 31 31 31 31 31 31 31 31 30 30 30
32 32 31 31 30 29 29 29 29 29 28 28 28 28 28 29 29 30 31 31 31 32 31 31 32 32 32 33 33 33 32 31 31 31 30 30 30 30 30 31 30 30 30 30
32 32 32 31 30 30 29 29 29 29 29 28 28 29 29 30 31 31 31 31 32 33 32 32 32 33 33 33 33 33 33 33 31 30 30 30 30 29 30 30 30 30 31 31
32 32 31 31 30 30 29 29 29 30 30 30 30 30 30 30 31 31 32 32 32 32 32 32 33 33 33 33 32 32 33 33 32 31 30 30 30 29 29 30 29 29 30 31
Wind_Direction
171 164 164 171 164 155 137 117 99 83 75 67 65 56 47 41 34 34 38 41 40 39 40 40 39 40 41 44 48 49 48 45 40 37 33 30 25 20 14 9 6 4 1 357
186 181 189 193 191 173 159 132 100 79 64 60 53 30 19 24 25 23 27 30 30 35 38 36 36 39 37 42 43 41 45 41 34 30 27 24 18 12 8 5 360 355 352 350
197 203 210 210 198 196 183 176 140 32 28 37 34 28 29 15 9 9 16 25 23 19 25 28 29 34 32 35 37 37 36 33 30 27 23 19 14 7 3 0 355 343 342 339
204 210 215 215 212 218 205 204 222 328 23 30 12 20 14 6 1 0 5 8 6 7 18 23 21 24 28 27 28 27 25 23 20 17 14 12 9 4 1 354 349 343 335 332
207 214 218 221 225 236 230 237 252 292 353 359 346 337 344 346 354 354 348 348 347 352 4 18 17 15 19 19 20 22 20 15 12 9 7 4 1 359 357 353 348 342 335 331
211 217 222 225 228 239 236 246 258 275 309 336 326 316 330 328 335 339 339 336 340 343 352 2 9 9 11 11 13 14 8 7 2 1 360 357 355 353 350 347 343 339 333 327
215 219 218 219 225 235 241 249 253 262 286 308 306 304 318 316 324 328 335 331 327 336 343 350 353 357 359 358 358 359 355 354 353 351 350 348 346 344 341 336 335 332 331 326
219 218 220 224 230 236 240 248 252 267 281 285 293 293 307 311 311 318 328 332 329 327 327 333 341 342 343 345 344 344 343 344 343 340 340 337 335 333 332 331 331 328 325 321
226 225 229 234 239 239 238 242 250 261 271 275 283 285 295 303 304 307 320 325 327 328 326 328 335 334 327 328 330 333 332 331 334 332 332 331 331 331 330 328 328 328 324 319
232 233 236 239 242 243 245 247 251 259 266 271 277 286 297 297 296 304 312 314 315 321 324 326 327 328 321 323 325 322 323 324 328 329 326 325 326 329 329 326 323 320 319 317
233 236 238 243 245 244 243 245 252 260 265 270 275 284 290 291 291 297 302 304 308 312 314 315 318 321 322 321 319 316 316 317 319 321 320 319 320 320 319 320 319 318 316 314
237 239 241 245 249 245 244 246 252 259 264 267 271 278 281 284 285 286 291 295 299 301 305 310 312 313 313 314 314 312 313 313 313 315 314 313 314 313 314 313 311 311 311 310
242 243 244 245 246 245 245 248 252 257 262 265 269 274 276 278 277 278 283 289 292 294 297 301 302 304 308 310 308 307 309 311 309 310 310 308 308 309 310 308 307 304 303 302
244 245 246 249 249 249 250 253 255 258 261 266 269 272 275 276 275 277 282 285 286 288 292 297 298 299 303 306 307 304 307 306 306 307 306 305 303 305 306 306 304 302 301 300
243 246 247 246 247 249 253 258 261 263 265 269 271 271 273 275 273 275 280 283 286 288 291 295 296 297 298 300 303 303 302 303 303 304 302 302 301 301 301 301 301 301 299 300
241 245 248 248 249 252 254 259 263 265 268 270 270 270 273 274 273 274 278 280 282 286 290 293 295 295 295 297 299 301 300 302 301 301 300 299 298 298 297 296 297 298 298 297
242 245 249 251 252 254 256 259 264 267 268 268 267 268 271 273 275 275 277 279 281 284 288 290 292 292 292 295 296 297 298 299 299 299 298 296 295 294 295 295 294 294 295 295
245 248 250 253 254 255 258 261 263 265 267 268 269 271 272 273 275 276 277 278 280 281 284 285 287 288 290 293 294 294 296 297 296 297 297 295 292 291 291 290 289 290 291 292
247 249 252 254 256 258 259 262 264 265 267 268 270 272 272 273 274 274 276 277 279 279 280 282 286 289 291 294 295 295 295 296 295 296 295 293 292 292 291 289 288 288 288 288
247 250 254 256 258 259 261 261 264 266 267 269 271 271 272 274 275 276 276 277 278 278 280 283 287 290 291 292 294 295 297 297 297 295 295 291 290 290 290 289 290 289 287 286
249 251 254 257 259 261 262 264 265 268 271 271 272 272 272 274 275 276 276 277 278 279 281 284 286 289 290 291 293 294 296 296 296 295 294 291 289 290 290 289 289 289 288 287
252 254 255 257 259 261 263 265 266 268 270 271 273 272 274 275 274 274 274 276 278 278 280 283 286 289 291 293 294 295 295 294 294 295 294 291 291 289 288 289 289 288 288 287
254 255 257 258 260 263 264 265 267 268 269 270 272 273 273 274 275 275 274 274 276 278 279 282 285 288 291 293 295 294 294 293 294 295 294 292 291 289 288 288 287 286 286 285
253 254 256 258 261 263 266 267 268 268 269 271 272 273 274 275 275 274 273 273 274 277 279 282 285 287 289 292 294 296 294 294 295 295 294 293 292 290 289 289 288 285 284 283
254 255 257 259 262 263 265 267 268 269 269 270 273 274 275 276 274 274 275 275 276 278 280 282 284 286 288 290 294 295 296 295 295 295 294 294 294 292 290 289 289 287 286 285
255 257 258 260 261 263 265 266 268 269 271 271 273 275 276 277 277 277 278 279 281 280 281 282 284 285 287 289 291 293 295 295 295 295 295 295 295 293 291 290 290 289 287 286
Height
5911 5912 5913 5913 5913 5914 5914 5914 5914 5914 5913 5913 5913 5912 5912 5911 5910 5909 5909 5907 5907 5906 5904 5903 5902 5900 5899 5897 5896 5895 5894 5893 5891 5890 5889 5888 5886 5885 5884 5882 5881 5880 5880 5879
5912 5912 5913 5913 5914 5914 5914 5915 5915 5915 5914 5914 5913 5913 5913 5912 5911 5910 5909 5908 5907 5906 5905 5904 5903 5901 5900 5898 5897 5896 5895 5894 5892 5891 5890 5888 5887 5886 5884 5882 5881 5880 5879 5878
5911 5913 5912 5913 5914 5914 5915 5915 5915 5915 5915 5914 5914 5914 5913 5913 5912 5911 5910 5909 5908 5907 5906 5905 5903 5902 5900 5899 5898 5897 5895 5894 5893 5891 5890 5888 5887 5886 5884 5883 5881 5880 5879 5878
5910 5911 5912 5913 5914 5914 5915 5915 5915 5915 5915 5915 5915 5914 5914 5913 5912 5912 5911 5910 5909 5907 5906 5905 5904 5902 5901 5899 5898 5897 5896 5894 5893 5891 5890 5889 5887 5885 5884 5882 5881 5879 5878 5877
5910 5911 5912 5913 5914 5914 5914 5915 5915 5915 5915 5915 5914 5914 5915 5913 5913 5912 5911 5910 5909 5908 5906 5905 5904 5903 5901 5900 5898 5897 5896 5895 5893 5892 5890 5889 5887 5885 5884 5882 5880 5879 5877 5876
5908 5910 5911 5912 5913 5913 5914 5914 5914 5914 5914 5915 5914 5914 5914 5913 5912 5912 5911 5909 5908 5907 5906 5905 5904 5902 5901 5900 5898 5897 5896 5895 5893 5892 5890 5889 5887 5885 5883 5882 5880 5878 5877 5875
5907 5908 5909 5910 5911 5912 5913 5914 5914 5914 5914 5914 5914 5913 5914 5913 5912 5911 5910 5909 5908 5907 5906 5905 5904 5902 5901 5900 5898 5897 5896 5894 5893 5891 5890 5888 5886 5885 5883 5881 5879 5877 5876 5874
5904 5907 5908 5909 5910 5911 5911 5913 5914 5914 5913 5914 5913 5912 5914 5912 5911 5910 5909 5908 5907 5907 5905 5904 5903 5902 5900 5899 5898 5896 5895 5894 5892 5890 5889 5887 5885 5883 5882 5880 5878 5876 5874 5873
5902 5905 5906 5907 5908 5909 5910 5911 5912 5912 5911 5912 5912 5912 5912 5911 5910 5909 5909 5908 5907 5906 5905 5904 5903 5901 5899 5898 5897 5895 5894 5892 5891 5889 5888 5886 5884 5882 5880 5878 5877 5875 5873 5871
5900 5902 5904 5904 5905 5906 5908 5909 5909 5909 5909 5909 5910 5910 5911 5910 5909 5908 5907 5907 5906 5905 5904 5903 5902 5900 5899 5897 5895 5894 5893 5891 5889 5888 5886 5884 5882 5881 5879 5877 5875 5873 5871 5870
5897 5900 5901 5902 5902 5904 5905 5906 5906 5907 5907 5907 5907 5910 5908 5908 5907 5907 5906 5905 5904 5903 5903 5901 5900 5899 5897 5895 5894 5892 5890 5889 5887 5886 5884 5882 5880 5879 5877 5875 5873 5871 5869 5867
5894 5896 5897 5898 5899 5900 5901 5902 5903 5904 5904 5904 5905 5908 5905 5905 5905 5904 5904 5903 5902 5901 5900 5899 5898 5897 5895 5893 5891 5889 5888 5886 5884 5883 5881 5879 5877 5875 5873 5872 5870 5868 5866 5864
5889 5891 5893 5894 5897 5897 5897 5898 5899 5900 5900 5900 5901 5905 5902 5902 5902 5902 5901 5900 5899 5898 5897 5896 5895 5893 5892 5890 5889 5887 5885 5883 5881 5879 5877 5875 5874 5872 5870 5868 5866 5864 5862 5861
5885 5886 5889 5891 5891 5893 5894 5895 5895 5896 5896 5897 5897 5898 5898 5898 5898 5898 5898 5897 5896 5895 5894 5893 5891 5890 5888 5887 5885 5884 5881 5879 5877 5875 5873 5871 5869 5867 5865 5863 5862 5860 5858 5856
5880 5881 5883 5885 5887 5888 5889 5890 5891 5891 5892 5893 5893 5893 5894 5894 5894 5894 5893 5893 5892 5891 5890 5888 5887 5885 5884 5882 5881 5879 5877 5875 5873 5870 5868 5866 5864 5862 5860 5858 5856 5855 5853 5851
5874 5876 5878 5880 5881 5883 5884 5885 5886 5886 5887 5888 5888 5889 5889 5889 5889 5888 5888 5888 5887 5886 5885 5883 5882 5880 5879 5877 5875 5874 5872 5870 5867 5865 5863 5860 5858 5856 5854 5853 5851 5849 5847 5846
5868 5870 5872 5874 5876 5877 5879 5880 5881 5881 5882 5883 5883 5885 5884 5884 5883 5883 5882 5882 5881 5880 5879 5877 5876 5874 5873 5871 5869 5867 5865 5863 5861 5859 5857 5854 5852 5850 5848 5846 5845 5843 5841 5840
5863 5865 5867 5868 5871 5871 5876 5875 5875 5876 5876 5877 5877 5878 5878 5878 5877 5877 5876 5876 5875 5874 5872 5871 5869 5868 5866 5865 5862 5861 5859 5856 5854 5852 5850 5847 5845 5844 5842 5840 5838 5837 5835 5833
5856 5859 5860 5862 5863 5865 5867 5868 5869 5869 5870 5871 5871 5871 5871 5871 5871 5870 5870 5869 5868 5867 5865 5864 5862 5861 5859 5857 5855 5853 5851 5849 5847 5844 5842 5840 5838 5836 5834 5833 5831 5829 5827 5826
5850 5852 5854 5855 5856 5857 5861 5862 5862 5863 5863 5864 5864 5864 5864 5864 5864 5865 5863 5862 5860 5859 5858 5856 5855 5853 5852 5850 5848 5845 5843 5841 5838 5836 5834 5831 5829 5828 5827 5825 5823 5821 5819 5818
5842 5844 5846 5848 5849 5850 5853 5854 5855 5857 5858 5857 5856 5856 5856 5856 5857 5856 5855 5854 5853 5851 5850 5849 5847 5846 5844 5842 5840 5837 5835 5832 5829 5827 5825 5823 5821 5819 5817 5816 5814 5812 5811 5809
5835 5837 5839 5840 5842 5845 5845 5846 5848 5848 5848 5848 5848 5848 5848 5848 5847 5847 5846 5845 5845 5843 5842 5841 5839 5838 5835 5833 5831 5829 5826 5823 5821 5818 5816 5814 5812 5810 5808 5807 5805 5803 5802 5800
5828 5830 5832 5834 5837 5837 5837 5838 5839 5839 5840 5840 5840 5840 5840 5840 5839 5838 5838 5837 5836 5835 5834 5833 5831 5829 5827 5825 5823 5820 5817 5814 5811 5809 5806 5804 5802 5800 5798 5797 5795 5794 5792 5791
5820 5822 5824 5826 5827 5829 5829 5830 5831 5831 5832 5832 5832 5832 5832 5831 5831 5830 5829 5828 5827 5826 5825 5824 5822 5821 5819 5817 5814 5811 5808 5805 5803 5800 5797 5795 5793 5791 5789 5787 5785 5784 5782 5781
5813 5814 5816 5817 5820 5821 5822 5823 5823 5824 5824 5824 5824 5824 5823 5823 5822 5821 5820 5819 5818 5817 5816 5815 5813 5812 5810 5808 5805 5803 5799 5797 5794 5791 5789 5786 5784 5782 5780 5778 5776 5774 5773 5771
5805 5807 5808 5810 5812 5813 5814 5814 5815 5815 5815 5815 5815 5815 5814 5814 5813 5812 5811 5810 5809 5808 5807 5805 5804 5802 5800 5798 5796 5793 5790 5788 5785 5783 5781 5778 5776 5773 5772 5770 5768 5765 5764 5762